#timestamp,LO_Frequency,Hit,StdDev 
1633618815.7,286047002.2,N
1633618835.5,286047002.6,N
1633618855.4,286047000.7,N
1633618875.2,286047003.6,N
1633618895.0,286047002.9,N
1633618895.9,286047002.9,N
1633618915.8,286047004.0,N
1633618935.6,286047001.3,N
1633618955.5,286047001.4,N
1633618975.3,286047002.2,N
1633618995.1,286047004.3,N
1633619015.9,286047003.8,N
1633619035.7,286046999.7,N
1633619055.5,286047002.5,N
1633619075.4,286047003.9,N
1633619095.2,286047000.1,N
1633619115.1,286047000.1,N
1633619116.0,286047000.1,N
1633619135.8,286047005.9,Y
1633619155.6,286047004.3,P
1633619175.5,286047003.9,N
1633619195.3,286047004.2,P
1633619215.2,286047004.2,Y
1633619235.9,286046999.4,P
1633619255.7,286046997.4,N
1633619275.6,286046996.8,N
1633619295.4,286046997.5,N
1633619315.2,286046995.5,N
1633619335.1,286046993.6,N
1633619336.0,286046993.6,N
1633619355.8,286046995.6,N
1633619375.7,286046994.6,N
1633619395.5,286046992.5,N
1633619415.3,286046991.8,N
1633619435.2,286046994.7,N
1633619455.0,286046992.7,N
1633619455.9,286046992.7,N
1633619475.8,286046992.5,N
1633619495.6,286046993.9,N
1633619515.4,286046996.3,N
1633619535.3,286046997.8,N
1633619555.1,286046997.2,N
1633619575.8,286046997.7,N
1633619595.7,286046998.7,N
1633619615.5,286046999.0,N
1633619635.4,286046999.6,N
1633619655.2,286046997.1,N
1633619675.0,286046998.2,N
1633619675.9,286046998.2,N
1633619695.8,286046998.2,N
1633619715.6,286046999.3,N
1633619735.4,286046999.1,N
1633619755.3,286046999.6,N
1633619775.1,286046999.5,N
1633619795.9,286046999.0,N
1633619815.7,286046997.2,N
1633619835.5,286046997.3,N
1633619855.4,286046997.7,N
1633619875.2,286046997.1,N
1633619895.0,286046995.3,N
1633619896.0,286046995.3,N
1633619915.8,286046996.8,N
1633619935.6,286046997.0,N
1633619955.5,286046997.0,N
1633619975.3,286046997.6,N
1633619995.1,286046997.9,N
1633620015.9,286046995.4,N
1633620035.7,286046997.9,N
1633620055.6,286046997.7,N
1633620075.4,286046999.0,N
1633620095.2,286046996.5,Y
1633620115.1,286046998.2,P
1633620116.0,286046998.2,P
1633620135.8,286047000.1,N
1633620155.6,286047002.5,N
1633620175.5,286046998.4,N
1633620195.3,286046998.7,N
1633620215.2,286046998.3,N
1633620235.9,286046998.5,N
1633620255.7,286047001.1,N
1633620275.6,286046998.6,N
1633620295.4,286046999.4,N
1633620315.2,286046997.2,N
1633620335.1,286046998.3,N
1633620336.0,286046998.3,N
1633620355.8,286047001.1,N
1633620375.7,286047000.5,N
1633620395.5,286047002.5,N
1633620415.3,286046998.6,N
1633620435.2,286047001.0,N
1633620455.0,286047002.8,N
1633620455.9,286047002.8,N
1633620475.8,286047000.6,N
1633620495.6,286047001.2,N
1633620515.4,286046998.1,N
1633620535.3,286046999.1,N
1633620555.1,286046999.2,N
1633620575.8,286046999.3,N
1633620595.7,286047001.1,N
1633620615.5,286046999.1,N
1633620635.4,286046997.2,N
1633620655.2,286046998.0,N
1633620675.0,286046996.6,N
1633620675.9,286046996.6,N
1633620695.8,286046997.2,N
1633620715.6,286046999.1,N
1633620735.4,286046998.9,N
1633620755.3,286046999.0,N
1633620775.1,286047002.4,N
1633620795.9,286046998.7,N
1633620815.7,286046996.7,N
1633620835.5,286046996.8,N
1633620855.4,286046997.8,N
1633620875.2,286046997.0,N
1633620895.1,286046998.5,N
1633620896.0,286046998.5,N
1633620915.8,286046998.9,N
1633620935.6,286046996.9,N
1633620955.5,286047004.3,N
1633620975.3,286047003.9,N
1633620995.1,286046999.8,N
1633621015.9,286047002.7,N
1633621035.7,286047000.1,N
1633621055.6,286047001.1,N
1633621075.4,286046998.3,N
1633621095.2,286046998.6,N
1633621115.1,286046999.3,N
1633621116.0,286046999.3,N
1633621135.8,286046998.6,N
1633621155.6,286047002.7,N
1633621175.5,286047001.6,N
1633621195.3,286047001.9,N
1633621215.2,286047001.8,N
1633621235.9,286047002.3,N
1633621255.7,286047002.5,N
1633621275.6,286046999.7,N
1633621295.4,286047001.0,N
1633621315.2,286047000.6,N
1633621335.1,286047000.4,N
1633621336.0,286047000.4,N
1633621355.8,286046999.8,N
1633621375.7,286047002.4,N
1633621395.5,286047000.3,N
1633621415.3,286047005.4,N
1633621435.2,286047004.0,N
1633621455.0,286047001.5,N
1633621455.9,286047001.5,N
1633621475.8,286047003.5,N
1633621495.6,286047004.3,N
1633621515.4,286047005.1,N
1633621535.3,286047007.5,Y
1633621555.1,286047006.0,P
1633621575.9,286047001.4,N
1633621595.7,286047001.9,N
1633621615.5,286047000.8,N
1633621635.4,286046999.6,N
1633621655.2,286046996.8,N
1633621675.0,286046998.2,N
1633621675.9,286046998.2,N
1633621695.8,286047000.7,N
1633621715.6,286046996.7,N
1633621735.5,286046997.4,N
1633621755.3,286046997.5,N
1633621775.1,286046999.5,N
1633621795.9,286046998.8,N
1633621815.7,286047003.9,N
1633621835.5,286047003.6,N
1633621855.4,286047002.6,N
1633621875.2,286047000.2,N
1633621895.1,286047002.7,N
1633621896.0,286047002.7,N
1633621915.8,286046999.8,N
1633621935.6,286047002.1,N
1633621955.5,286047005.0,N
1633621975.3,286047006.0,N
1633621995.1,286047006.0,N
1633622015.9,286047003.9,N
1633622035.7,286046999.7,N
1633622055.6,286046999.7,N
1633622075.4,286046999.7,N
1633622095.2,286047002.3,N
1633622115.1,286047000.2,N
1633622116.0,286047000.2,N
1633622135.8,286047001.2,N
1633622155.7,286047000.1,N
1633622175.5,286047002.3,N
1633622195.3,286047002.0,N
1633622215.2,286047001.8,N
1633622235.0,286047002.3,N
1633622235.9,286047002.3,N
1633622255.8,286047002.8,N
1633622275.6,286047002.5,N
1633622295.4,286047002.5,N
1633622315.3,286047002.0,N
1633622335.1,286047001.6,N
1633622355.8,286047002.0,N
1633622375.7,286046999.7,N
1633622395.5,286046999.8,N
